Location: Bullfrog
(37.5121°N, 110.7330°W)
Time: 20:10:48
(UTC-07:00)

Hubble Space Telescope - Pass Details

Date: 28 January 2026
Orbit: 478 x 480 km, 28.5° (Epoch: 9 February)

Event Time Altitude Azimuth Distance (km) Brightness Sun altitude
Rises 18:55:35 0° 249° (WSW) 2,509 6.0 -14.6°
Reaches altitude 10° 18:58:11 10° 232° (SW) 1,632 4.2 -15.1°
Maximum altitude 19:00:58 20° 184° (S) 1,151 2.6 -15.7°
Enters shadow 19:03:15 12° 142° (SE) 1,488 2.8 -16.1°
